Regional Weather Roundup
Issued by NWS

Home | Current Version | Previous Version | Graphics & Text | Print | Product List | Glossary On
Versions: 1 2 3 4 5 6 7 8 9 10 11 12 13 14 15 16 17 18 19 20 21 22 23 24 25 26 27 28 29 30 31 32 33 34 35 36 37 38 39 40 41 42 43 44 45 46 47 48 49 50
000
ASUS43 KMKX 302111
RWRWI

WISCONSIN REGIONAL WEATHER ROUNDUP
NATIONAL WEATHER SERVICE MILWAUKEE/SULLIVAN WI
400 PM CDT FRI SEP 30 2016

NOTE: "FAIR" INDICATES FEW OR NO CLOUDS BELOW 12,000 FEET WITH NO
SIGNIFICANT WEATHER AND/OR OBSTRUCTIONS TO VISIBILITY.

WIZ001-002-006>008-014>016-023>028-302200-
NORTHWEST WISCONSIN

CITY           SKY/WX    TMP DP  RH WIND       PRES   REMARKS
SUPERIOR ARPT  CLOUDY    55  53  92 NE8       30.35F
ASHLAND        CLOUDY    57  53  86 NE13      30.35F
HAYWARD        SUNNY     65  52  62 N15       30.30F
SIREN          SUNNY     69  50  51 NE10G17   30.28F
CUMBERLAND     SUNNY     68  46  45 NE10      30.26F
RICE LAKE      SUNNY     73  44  35 NE8       30.26F
CHETEK         NOT AVBL
LADYSMITH      SUNNY     72  49  43 NE9       30.27F
EAU CLAIRE     MOSUNNY   73  47  39 NE9       30.22F
MENOMONIE      SUNNY     74  49  41 NE8       30.23F
NEW RICHMOND   SUNNY     72  45  38 NE10      30.24F
OSCEOLA        SUNNY     72  49  44 NE8       30.28F
$$

WIZ003>005-009-010-017-018-302200-
NORTH CENTRAL WISCONSIN

CITY           SKY/WX    TMP DP  RH WIND       PRES   REMARKS
MANITOWISH WTR NOT AVBL
ARBOR VITAE    PTSUNNY   68  46  45 NE8       30.28F
WOODRUFF       PTSUNNY   68  46  45 NE8       30.28F
RHINELANDER    PTSUNNY   68  49  50 NE8G18    30.28F
EAGLE RIVER    MOSUNNY   68  41  38 NE14      30.28F
LAND O LAKES   CLOUDY    67  43  41 NE7       30.31F
PHILLIPS       SUNNY     69  50  50 E9G17     30.27F
TOMAHAWK       PTSUNNY   68  48  49 NE7       30.27F
MEDFORD        PTSUNNY   68  50  52 NE9       30.24F
MERRILL        CLOUDY    69  52  55 E9G16     30.25F
$$

WIZ029-030-035-036-043>047-302200-
CENTRAL WISCONSIN

CITY           SKY/WX    TMP DP  RH WIND       PRES   REMARKS
WAUSAU         CLOUDY    68  52  56 NE8       30.22F
MOSINEE        CLOUDY    66  55  68 E10       30.24F
MARSHFIELD     CLOUDY    69  52  54 E10       30.21F
STEVENS POINT  CLOUDY    63  53  70 NE9       30.23F
WAUPACA        CLOUDY    63  57  81 NE6       30.22F
WAUTOMA        CLOUDY    60  57  89 NE13G18   30.21F
WISC RAPIDS    CLOUDY    64  56  75 E9        30.23F
CAMP DOUGLAS   PTSUNNY   62  57  84 NE8       30.21F
$$

WIZ011>013-019>022-031-037>040-048>050-302200-
NORTHEAST WISCONSIN

CITY           SKY/WX    TMP DP  RH WIND       PRES   REMARKS
ANTIGO         CLOUDY    66  52  61 E13       30.26F
SHAWANO        CLOUDY    65  54  66 E13G18    30.24S
OCONTO         NOT AVBL
STURGEON BAY   CLOUDY    63  57  81 NE13      30.23F
GREEN BAY      CLOUDY    63  59  87 NE23G29   30.21F
MANITOWOC      CLOUDY    62  58  86 MISG      30.21R
APPLETON       CLOUDY    61  59  94 NE16      30.19F
CLINTONVILLE   CLOUDY    63  54  72 NE8G17    30.22F
OSHKOSH        CLOUDY    62  58  86 NE10G18   30.18F
$$

WIZ032>034-041-042-053>061-302200-
SOUTHWEST WISCONSIN

CITY           SKY/WX    TMP DP  RH WIND       PRES   REMARKS
LA CROSSE      CLOUDY    67  56  67 E8        30.20F
SPARTA         CLOUDY    63  56  80 E9        30.22F
VIROQUA        CLOUDY    60  57  89 NE12G18   30.21F
BOSCOBEL       LGT RAIN  64  58  80 NE5       30.19S
PRAIRIE DU CHI CLOUDY    62  55  79 N3        30.18F
PLATTEVILLE    CLOUDY    62  60  93 NE12      30.16F
$$

WIZ056-057-062-063-064-067-068-302200-
SOUTH CENTRAL WISCONSIN

CITY           SKY/WX    TMP DP  RH WIND       PRES   REMARKS
REEDSBURG      NOT AVBL
BARABOO/DELLS  CLOUDY    58  57  95 NE7       30.19F FOG
LONE ROCK      CLOUDY    61  58  90 NE7       30.18F
MINERAL POINT  CLOUDY    63  59  88 N12       30.16F
MADISON        DRIZZLE   61  56  83 NE16      30.16F
MIDDLETON      CLOUDY    63  60  90 NE7       30.17S
WATERTOWN      CLOUDY    61  60  96 NE9G16    30.16S
MONROE         CLOUDY    61  57  88 NE16      30.14S
JANESVILLE     DRIZZLE   63  61  94 NE12G17   30.13S
$$

WIZ051-052-058>065-066-070>072-302200-
SOUTHEAST WISCONSIN

CITY           SKY/WX    TMP DP  RH WIND       PRES   REMARKS
MILWAUKEE      CLOUDY    61  57  87 NE9       30.15R
WAUKESHA       CLOUDY    57  55  94 MISG      30.16F
MILWAUKEE/TIMM NOT AVBL
RACINE         CLOUDY    63  58  83 NE13      30.14S
BURLINGTON     CLOUDY    60  56  87 NE10      30.13S
KENOSHA        CLOUDY    63  59  87 NE14      30.12F
FOND DU LAC    CLOUDY    62  58  86 NE8       30.19S
SHEBOYGAN      CLOUDY    61  57  87 NE15      30.18F
WEST BEND      CLOUDY    68  68 100 NE9       30.17S
JUNEAU         CLOUDY    61  56  83 NE9       30.18F
$$

LSZ147-162-302200-
LAKE SUPERIOR

STATION/POSITION TIME  TEMP    WIND        PRES    WAVE
                       AIR SEA DIR/SP/G            HT/PER
                 (UTC) (F)     (DEG/KT/KT) (MB)    (FT/S)
W MID LAKE BUOY  2050   54 56   50/ 14/ 16 1027.7F   2/ 4
DEVILS ISLAND    2000   53      30/ 12/ 14 1028.9F
SAXON HARBOR     2040   57      10/  9/ 11 1027.1F
$$

LMZ867-665-643>646-302200-
LAKE MICHIGAN

STATION/POSITION TIME  TEMP    WIND        PRES    WAVE
                       AIR SEA DIR/SP/G            HT/PER
                 (UTC) (F)     (DEG/KT/KT) (MB)    (FT/S)
CHAMBERS ISLAND  2000   63      30/ 14/ 17 1024.0F
N MID LAKE BUOY  2050   63 65   40/ 17/ 21 1023.2F   4/ 5
NORTHPORT PIER   2000   64      60/ 13/ 18 1024.4F
SISTER BAY       2008   73      60/  9/ 14   N/A
KEWAUNEE LAKESHO 2000   63      40/ 13/ 20 1022.6F
SHEBOYGAN LAKESH 2100   60      30/ 18/ 20 1021.7F
PORT WASHINGTON  2040   61      60/ 13/ 17 1022.0F
ATWATER BUOY     2000   58 54   30/ 12/ 16 1020.5F
MILWAUKEE LAKESH 2010   59      20/ 16/ 17   N/A
S MID LAKE BUOY  2050   64 68   60/ 21/ 25 1018.7S   4/ 5
KENOSHA   LAKESH 2100   63      50/ 16/ 20 1019.6S
$$

TC  - TEMPERATURE IN CELSIUS
VSB - VISIBILITY IN STATUTE MILES
WCI - WIND CHILL INDEX
HX  - HEAT INDEX





USA.gov is the U.S. government's official web portal to all federal, state and local government web resources and services.